RYR322Y LICT-EPKT

Flight info

Callsign RYR322Y
Flight time 2h 19m
Altitude 36000
Route GIANO M725 SOR DCT XOLTA DCT UNIPA DCT NOVLO DCT VEBAL DCT TPS DCT LITKU DCT REDSI DCT MEBAN
Aircraft B738/M-SDE2E3FGHIRWXY/LB1

Departure

Time 2026-04-22 23:15
Airport Vincenzo Florio Airport Trapani-Birgi (LICT)

Arrival

Time 2026-04-23 01:34
Airport Katowice Wojciech Korfanty International Airport (EPKT)
Time Latitude Longitude Altitude Speed Heading
2026-04-22 22:57 37.90142 12.49839 27 ft 0 kts 240°
2026-04-22 23:05 37.90142 12.49838 27 ft 1 kts 245°
2026-04-22 23:05 37.90147 12.49827 27 ft 2 kts 314°
2026-04-22 23:05 37.90161 12.49823 27 ft 2 kts 351°
2026-04-22 23:06 37.90176 12.49820 27 ft 2 kts 351°
2026-04-22 23:06 37.90195 12.49811 26 ft 6 kts 329°
2026-04-22 23:06 37.90235 12.49758 26 ft 9 kts 311°
2026-04-22 23:06 37.90280 12.49703 27 ft 9 kts 322°
2026-04-22 23:07 37.90326 12.49649 28 ft 9 kts 309°
2026-04-22 23:07 37.90366 12.49589 29 ft 9 kts 310°
2026-04-22 23:07 37.90408 12.49537 28 ft 8 kts 346°
2026-04-22 23:07 37.90465 12.49548 30 ft 8 kts 357°
2026-04-22 23:08 37.90518 12.49527 31 ft 8 kts 339°
2026-04-22 23:08 37.90585 12.49491 33 ft 11 kts 336°
2026-04-22 23:08 37.90658 12.49452 34 ft 13 kts 337°
2026-04-22 23:08 37.90754 12.49415 33 ft 16 kts
2026-04-22 23:09 37.90851 12.49471 31 ft 16 kts 37°
2026-04-22 23:09 37.90948 12.49519 31 ft 16 kts 324°
2026-04-22 23:09 37.91016 12.49412 31 ft 16 kts 308°
2026-04-22 23:09 37.91086 12.49298 28 ft 16 kts 307°
2026-04-22 23:10 37.91155 12.49186 30 ft 16 kts 308°
2026-04-22 23:10 37.91224 12.49074 29 ft 17 kts 308°
2026-04-22 23:10 37.91300 12.48953 32 ft 17 kts 308°
2026-04-22 23:10 37.91373 12.48830 33 ft 18 kts 307°
2026-04-22 23:11 37.91456 12.48696 33 ft 20 kts 309°
2026-04-22 23:11 37.91537 12.48562 31 ft 19 kts 307°
2026-04-22 23:11 37.91625 12.48420 30 ft 22 kts 308°
2026-04-22 23:11 37.91718 12.48268 28 ft 22 kts 307°
2026-04-22 23:12 37.91810 12.48115 29 ft 21 kts 307°
2026-04-22 23:12 37.91900 12.47968 31 ft 21 kts 308°
2026-04-22 23:12 37.91988 12.47825 33 ft 20 kts 308°
2026-04-22 23:12 37.92042 12.47726 34 ft 0 kts 291°
2026-04-22 23:13 37.92037 12.47740 32 ft 8 kts 300°
2026-04-22 23:13 37.92013 12.47781 34 ft 4 kts 278°
2026-04-22 23:13 37.91993 12.47718 34 ft 13 kts 219°
2026-04-22 23:13 37.91920 12.47644 31 ft 14 kts 216°
2026-04-22 23:14 37.91840 12.47656 30 ft 13 kts 133°
2026-04-22 23:14 37.91722 12.47846 28 ft 61 kts 128°
2026-04-22 23:14 37.91293 12.48556 32 ft 139 kts 127°
2026-04-22 23:14 37.90579 12.49733 285 ft 183 kts 127°
2026-04-22 23:15 37.89782 12.50903 1551 ft 174 kts 139°
2026-04-22 23:15 37.88649 12.51497 2325 ft 186 kts 176°
2026-04-22 23:15 37.87307 12.51376 2908 ft 201 kts 197°
2026-04-22 23:15 37.86047 12.50516 3427 ft 218 kts 225°
2026-04-22 23:16 37.85254 12.48857 3909 ft 227 kts 258°
2026-04-22 23:16 37.85273 12.46900 4693 ft 224 kts 290°
2026-04-22 23:16 37.86115 12.45278 5477 ft 225 kts 320°
2026-04-22 23:16 37.87597 12.44410 5775 ft 253 kts 352°
2026-04-22 23:17 37.89413 12.44536 6316 ft 269 kts
2026-04-22 23:17 37.91298 12.44680 7072 ft 273 kts 360°
2026-04-22 23:17 37.93199 12.44774 7936 ft 274 kts 359°
2026-04-22 23:17 37.95114 12.44864 8755 ft 277 kts 359°
2026-04-22 23:18 37.97041 12.44960 9572 ft 280 kts 358°
2026-04-22 23:18 37.99010 12.45065 10343 ft 285 kts 358°
2026-04-22 23:18 38.01060 12.45175 10606 ft 308 kts 359°
2026-04-22 23:18 38.03288 12.45297 10820 ft 331 kts 359°
2026-04-22 23:19 38.05590 12.45432 11313 ft 341 kts 359°
2026-04-22 23:19 38.08011 12.45581 12047 ft 344 kts 359°
2026-04-22 23:19 38.10378 12.45729 12801 ft 347 kts 359°
2026-04-22 23:19 38.12800 12.45881 13533 ft 351 kts 359°
2026-04-22 23:20 38.15255 12.46034 14208 ft 355 kts 359°
2026-04-22 23:20 38.17730 12.46188 14865 ft 358 kts 359°
2026-04-22 23:20 38.20226 12.46342 15520 ft 361 kts 359°
2026-04-22 23:20 38.22751 12.46499 16161 ft 365 kts 359°
2026-04-22 23:21 38.25296 12.46657 16808 ft 368 kts 359°
2026-04-22 23:21 38.27866 12.46816 17447 ft 372 kts 359°
2026-04-22 23:21 38.30473 12.46978 18061 ft 376 kts 359°
2026-04-22 23:21 38.33088 12.47140 18631 ft 380 kts 359°
2026-04-22 23:22 38.35747 12.47306 19207 ft 382 kts 359°
2026-04-22 23:22 38.38398 12.47471 19792 ft 384 kts 359°
2026-04-22 23:22 38.41080 12.47638 20326 ft 387 kts 358°
2026-04-22 23:22 38.43780 12.47745 20866 ft 388 kts 354°
2026-04-22 23:23 38.46486 12.47603 21410 ft 389 kts 352°
2026-04-22 23:23 38.49198 12.47382 21954 ft 391 kts 352°
2026-04-22 23:23 38.51919 12.47159 22480 ft 394 kts 352°
2026-04-22 23:23 38.54675 12.46956 22989 ft 397 kts 352°
2026-04-22 23:24 38.57440 12.46766 23509 ft 400 kts 352°
2026-04-22 23:24 38.60225 12.46581 23949 ft 402 kts 352°
2026-04-22 23:24 38.63022 12.46396 24375 ft 404 kts 352°
2026-04-22 23:24 38.65842 12.46209 24789 ft 406 kts 352°
2026-04-22 23:25 38.68672 12.46020 25190 ft 409 kts 352°
2026-04-22 23:25 38.71514 12.45831 25594 ft 411 kts 352°
2026-04-22 23:25 38.74385 12.45639 25984 ft 413 kts 352°
2026-04-22 23:25 38.77238 12.45448 26369 ft 415 kts 352°
2026-04-22 23:26 38.80131 12.45254 26751 ft 417 kts 352°
2026-04-22 23:26 38.83036 12.45089 27114 ft 421 kts 356°
2026-04-22 23:26 38.85986 12.45611 27443 ft 434 kts 11°
2026-04-22 23:26 38.88821 12.47022 27825 ft 444 kts 23°
2026-04-22 23:27 38.91397 12.49276 28174 ft 453 kts 33°
2026-04-22 23:27 38.93837 12.51866 28514 ft 457 kts 35°
2026-04-22 23:27 38.96258 12.54524 28821 ft 460 kts 36°
2026-04-22 23:27 38.98687 12.57211 29127 ft 462 kts 36°
2026-04-22 23:28 39.01135 12.59903 29449 ft 464 kts 35°
2026-04-22 23:28 39.03599 12.62591 29807 ft 464 kts 35°
2026-04-22 23:28 39.06056 12.65252 30271 ft 462 kts 34°
2026-04-22 23:28 39.08517 12.67907 30695 ft 460 kts 34°
2026-04-22 23:29 39.10976 12.70551 31067 ft 459 kts 34°
2026-04-22 23:29 39.13416 12.73172 31377 ft 459 kts 34°
2026-04-22 23:29 39.15841 12.75778 31714 ft 458 kts 34°
2026-04-22 23:29 39.18312 12.78435 32076 ft 457 kts 34°
2026-04-22 23:30 39.20756 12.81068 32441 ft 456 kts 34°
2026-04-22 23:30 39.23180 12.83682 32782 ft 455 kts 34°
2026-04-22 23:30 39.25578 12.86271 33101 ft 455 kts 34°
2026-04-22 23:30 39.28034 12.88925 33425 ft 454 kts 34°
2026-04-22 23:31 39.30423 12.91509 33743 ft 453 kts 34°
2026-04-22 23:31 39.32837 12.94124 34081 ft 452 kts 34°
2026-04-22 23:31 39.35236 12.96725 34346 ft 452 kts 34°
2026-04-22 23:31 39.37649 12.99341 34604 ft 451 kts 34°
2026-04-22 23:32 39.40046 13.01945 34868 ft 451 kts 34°
2026-04-22 23:32 39.42449 13.04557 35144 ft 450 kts 34°
2026-04-22 23:32 39.44838 13.07156 35420 ft 448 kts 34°
2026-04-22 23:32 39.47227 13.09757 35674 ft 448 kts 34°
2026-04-22 23:33 39.49607 13.12351 35887 ft 448 kts 34°
2026-04-22 23:33 39.51992 13.14953 36091 ft 448 kts 34°
2026-04-22 23:33 39.56784 13.20183 36083 ft 452 kts 34°
2026-04-22 23:34 39.61562 13.25416 36072 ft 447 kts 34°
2026-04-22 23:34 39.66302 13.30618 36089 ft 444 kts 34°
2026-04-22 23:35 39.71014 13.35793 36089 ft 443 kts 34°
2026-04-22 23:35 39.75715 13.40965 36089 ft 443 kts 34°
2026-04-22 23:36 39.80420 13.46153 36095 ft 444 kts 33°
2026-04-22 23:36 39.85130 13.51355 36095 ft 444 kts 33°
2026-04-22 23:37 39.89839 13.56567 36095 ft 445 kts 33°
2026-04-22 23:37 39.94569 13.61811 36091 ft 447 kts 33°
2026-04-22 23:38 39.99303 13.67071 36096 ft 448 kts 33°
2026-04-22 23:38 40.04045 13.72349 36095 ft 449 kts 33°
2026-04-22 23:39 40.08797 13.77650 36092 ft 450 kts 33°
2026-04-22 23:39 40.13520 13.82927 36093 ft 450 kts 33°
2026-04-22 23:40 40.18305 13.88285 36094 ft 450 kts 33°
2026-04-22 23:40 40.23035 13.93592 36090 ft 450 kts 33°
2026-04-22 23:41 40.27815 13.98963 36093 ft 450 kts 33°
2026-04-22 23:41 40.32516 14.04269 36092 ft 449 kts 33°
2026-04-22 23:42 40.37245 14.09630 36097 ft 448 kts 33°
2026-04-22 23:42 40.41958 14.14982 36095 ft 448 kts 33°
2026-04-22 23:43 40.46660 14.20330 36100 ft 447 kts 33°
2026-04-22 23:43 40.51351 14.25675 36099 ft 446 kts 33°
2026-04-22 23:44 40.56035 14.31021 36109 ft 445 kts 33°
2026-04-22 23:44 40.61055 14.35512 36114 ft 430 kts 19°
2026-04-22 23:45 40.66430 14.38921 36132 ft 429 kts 18°
2026-04-22 23:45 40.71809 14.42298 36131 ft 429 kts 18°
2026-04-22 23:46 40.76273 14.45142 36135 ft 429 kts 18°
2026-04-22 23:46 40.81632 14.48593 36133 ft 428 kts 18°
2026-04-22 23:47 40.86979 14.52056 36137 ft 428 kts 18°
2026-04-22 23:47 40.92326 14.55526 36144 ft 428 kts 18°
2026-04-22 23:48 40.97670 14.58999 36136 ft 428 kts 18°
2026-04-22 23:48 41.03020 14.62482 36148 ft 428 kts 18°
2026-04-22 23:49 41.08365 14.65968 36147 ft 428 kts 18°
2026-04-22 23:49 41.13703 14.69457 36156 ft 428 kts 18°
2026-04-22 23:50 41.19043 14.72952 36166 ft 428 kts 18°
2026-04-22 23:50 41.24376 14.76450 36169 ft 428 kts 18°
2026-04-22 23:51 41.29710 14.79954 36179 ft 428 kts 18°
2026-04-22 23:51 41.35056 14.83473 36171 ft 428 kts 18°
2026-04-22 23:52 41.40390 14.86992 36185 ft 428 kts 18°
2026-04-22 23:52 41.45721 14.90513 36178 ft 429 kts 18°
2026-04-22 23:53 41.51069 14.94053 36193 ft 429 kts 18°
2026-04-22 23:53 41.56386 14.97577 36192 ft 431 kts 18°
2026-04-22 23:54 41.61765 15.01148 36185 ft 433 kts 18°
2026-04-22 23:54 41.67170 15.04746 36176 ft 434 kts 18°
2026-04-22 23:55 41.72581 15.08356 36174 ft 435 kts 18°
2026-04-22 23:55 41.78001 15.11978 36168 ft 435 kts 18°
2026-04-22 23:56 41.83423 15.15608 36174 ft 436 kts 18°
2026-04-22 23:56 41.88836 15.19240 36157 ft 435 kts 19°
2026-04-22 23:57 41.94235 15.22868 36152 ft 434 kts 19°
2026-04-22 23:57 41.99635 15.26504 36150 ft 432 kts 19°
2026-04-22 23:58 42.05003 15.30124 36157 ft 431 kts 19°
2026-04-22 23:58 42.10355 15.33741 36148 ft 430 kts 19°
2026-04-22 23:59 42.15698 15.37359 36144 ft 429 kts 19°
2026-04-22 23:59 42.21025 15.40972 36144 ft 428 kts 19°
2026-04-23 00:00 42.29001 15.46395 36152 ft 428 kts 20°
2026-04-23 00:01 42.34313 15.50016 36154 ft 428 kts 20°
2026-04-23 00:01 42.39633 15.53648 36157 ft 428 kts 20°
2026-04-23 00:02 42.44985 15.57310 36159 ft 429 kts 20°
2026-04-23 00:02 42.50282 15.60941 36160 ft 430 kts 20°
2026-04-23 00:03 42.55622 15.64609 36152 ft 430 kts 20°
2026-04-23 00:03 42.60966 15.68288 36162 ft 431 kts 20°
2026-04-23 00:04 42.66311 15.71974 36165 ft 431 kts 21°
2026-04-23 00:04 42.71691 15.75586 36157 ft 429 kts 18°
2026-04-23 00:05 42.77204 15.78632 36161 ft 428 kts 16°
2026-04-23 00:05 42.82755 15.81565 36158 ft 427 kts 16°
2026-04-23 00:06 42.88286 15.84529 36155 ft 427 kts 16°
2026-04-23 00:06 42.93807 15.87529 36166 ft 426 kts 17°
2026-04-23 00:07 42.99308 15.90536 36165 ft 426 kts 17°
2026-04-23 00:07 43.04797 15.93545 36164 ft 425 kts 17°
2026-04-23 00:08 43.10280 15.96556 36157 ft 424 kts 17°
2026-04-23 00:08 43.15743 15.99560 36161 ft 423 kts 17°
2026-04-23 00:09 43.21194 16.02564 36165 ft 423 kts 17°
2026-04-23 00:09 43.26651 16.05577 36167 ft 422 kts 17°
2026-04-23 00:10 43.32099 16.08590 36176 ft 422 kts 17°
2026-04-23 00:10 43.37528 16.11599 36179 ft 422 kts 18°
2026-04-23 00:11 43.42975 16.14624 36183 ft 422 kts 18°
2026-04-23 00:11 43.48422 16.17654 36189 ft 422 kts 18°
2026-04-23 00:12 43.53830 16.20669 36191 ft 422 kts 18°
2026-04-23 00:12 43.59308 16.23729 36186 ft 423 kts 18°
2026-04-23 00:13 43.64728 16.26762 36191 ft 423 kts 18°
2026-04-23 00:13 43.70229 16.29848 36186 ft 424 kts 19°
2026-04-23 00:14 43.75655 16.32897 36190 ft 424 kts 19°
2026-04-23 00:14 43.81124 16.35976 36197 ft 424 kts 19°
2026-04-23 00:15 43.86628 16.39081 36198 ft 424 kts 19°
2026-04-23 00:15 43.92061 16.42153 36213 ft 424 kts 19°
2026-04-23 00:16 43.97522 16.45246 36218 ft 424 kts 19°
2026-04-23 00:16 44.02985 16.48319 36212 ft 423 kts 17°
2026-04-23 00:17 44.08617 16.50650 36237 ft 421 kts 13°
2026-04-23 00:17 44.14277 16.52744 36231 ft 421 kts 13°
2026-04-23 00:18 44.19939 16.54866 36241 ft 421 kts 13°
2026-04-23 00:18 44.25582 16.57026 36242 ft 422 kts 13°
2026-04-23 00:19 44.31244 16.59214 36256 ft 422 kts 14°
2026-04-23 00:19 44.36896 16.61407 36255 ft 421 kts 14°
2026-04-23 00:20 44.42545 16.63602 36258 ft 421 kts 14°
2026-04-23 00:20 44.48193 16.65800 36261 ft 421 kts 14°
2026-04-23 00:21 44.53852 16.68006 36259 ft 421 kts 14°
2026-04-23 00:21 44.59481 16.70206 36259 ft 421 kts 14°
2026-04-23 00:22 44.65128 16.72417 36264 ft 420 kts 14°
2026-04-23 00:22 44.70757 16.74625 36263 ft 420 kts 14°
2026-04-23 00:23 44.76378 16.76835 36260 ft 419 kts 15°
2026-04-23 00:23 44.81960 16.79034 36247 ft 419 kts 15°
2026-04-23 00:24 44.87568 16.81248 36243 ft 418 kts 15°
2026-04-23 00:24 44.93203 16.83476 36247 ft 418 kts 15°
2026-04-23 00:25 44.98790 16.85691 36244 ft 417 kts 15°
2026-04-23 00:25 45.04341 16.87895 36251 ft 416 kts 15°
2026-04-23 00:26 45.09915 16.90113 36249 ft 416 kts 15°
2026-04-23 00:26 45.15496 16.92339 36231 ft 416 kts 15°
2026-04-23 00:27 45.21060 16.94562 36240 ft 416 kts 15°
2026-04-23 00:27 45.26620 16.96883 36232 ft 416 kts 17°
2026-04-23 00:28 45.32126 16.99365 36226 ft 416 kts 18°
2026-04-23 00:28 45.37634 17.01859 36234 ft 415 kts 18°
2026-04-23 00:29 45.43139 17.04337 36229 ft 415 kts 18°
2026-04-23 00:29 45.48656 17.06815 36231 ft 415 kts 18°
2026-04-23 00:30 45.54171 17.09295 36231 ft 415 kts 18°
2026-04-23 00:30 45.59685 17.11780 36221 ft 415 kts 18°
2026-04-23 00:31 45.64255 17.13844 36234 ft 415 kts 18°
2026-04-23 00:31 45.69774 17.16341 36214 ft 415 kts 19°
2026-04-23 00:32 45.75275 17.18835 36220 ft 415 kts 19°
2026-04-23 00:32 45.80777 17.21335 36217 ft 415 kts 19°
2026-04-23 00:33 45.86272 17.23837 36228 ft 414 kts 19°
2026-04-23 00:33 45.91774 17.26347 36212 ft 414 kts 19°
2026-04-23 00:34 45.97204 17.29058 36198 ft 412 kts 27°
2026-04-23 00:34 46.01992 17.33532 36192 ft 410 kts 43°
2026-04-23 00:35 46.06113 17.39186 36209 ft 410 kts 44°
2026-04-23 00:35 46.10199 17.44915 36211 ft 409 kts 44°
2026-04-23 00:36 46.14288 17.50620 36205 ft 409 kts 44°
2026-04-23 00:36 46.18383 17.56311 36197 ft 408 kts 44°
2026-04-23 00:37 46.22477 17.61999 36195 ft 408 kts 44°
2026-04-23 00:37 46.26560 17.67681 36197 ft 407 kts 44°
2026-04-23 00:38 46.30634 17.73364 36192 ft 407 kts 44°
2026-04-23 00:38 46.34700 17.79048 36196 ft 406 kts 45°
2026-04-23 00:39 46.38742 17.84711 36199 ft 405 kts 45°
2026-04-23 00:39 46.42794 17.90401 36190 ft 404 kts 45°
2026-04-23 00:40 46.46823 17.96070 36194 ft 403 kts 45°
2026-04-23 00:40 46.50822 18.01710 36185 ft 402 kts 45°
2026-04-23 00:41 46.54855 18.07410 36177 ft 401 kts 45°
2026-04-23 00:41 46.58851 18.13070 36188 ft 401 kts 45°
2026-04-23 00:42 46.62806 18.18683 36175 ft 400 kts 45°
2026-04-23 00:42 46.66783 18.24341 36179 ft 399 kts 46°
2026-04-23 00:43 46.70750 18.29997 36167 ft 399 kts 46°
2026-04-23 00:43 46.74698 18.35637 36173 ft 398 kts 46°
2026-04-23 00:44 46.78642 18.41286 36174 ft 397 kts 46°
2026-04-23 00:44 46.82584 18.46942 36164 ft 397 kts 46°
2026-04-23 00:45 46.86523 18.52607 36165 ft 397 kts 46°
2026-04-23 00:45 46.90407 18.58204 36162 ft 396 kts 46°
2026-04-23 00:46 46.94367 18.63924 36161 ft 396 kts 46°
2026-04-23 00:46 46.98288 18.69600 36158 ft 396 kts 46°
2026-04-23 00:47 47.02184 18.75251 36153 ft 396 kts 46°
2026-04-23 00:47 47.06107 18.80955 36152 ft 395 kts 46°
2026-04-23 00:48 47.10004 18.86632 36150 ft 395 kts 47°
2026-04-23 00:48 47.13883 18.92297 36148 ft 395 kts 47°
2026-04-23 00:49 47.17787 18.98010 36149 ft 394 kts 47°
2026-04-23 00:49 47.21667 19.03701 36153 ft 394 kts 47°
2026-04-23 00:50 47.25538 19.09391 36153 ft 393 kts 47°
2026-04-23 00:50 47.29392 19.15069 36155 ft 392 kts 47°
2026-04-23 00:51 47.33245 19.20757 36156 ft 392 kts 47°
2026-04-23 00:51 47.37086 19.26440 36160 ft 391 kts 47°
2026-04-23 00:52 47.40930 19.32142 36156 ft 390 kts 47°
2026-04-23 00:52 47.44726 19.37781 36155 ft 390 kts 47°
2026-04-23 00:53 47.48916 19.42863 36158 ft 394 kts 32°
2026-04-23 00:53 47.54094 19.45719 36147 ft 405 kts 15°
2026-04-23 00:54 47.59675 19.46875 36153 ft 406 kts 13°
2026-04-23 00:54 47.65281 19.47932 36146 ft 406 kts 13°
2026-04-23 00:55 47.70879 19.49039 36152 ft 405 kts 13°
2026-04-23 00:55 47.76501 19.50188 36148 ft 405 kts 13°
2026-04-23 00:56 47.82079 19.51341 36152 ft 404 kts 13°
2026-04-23 00:56 47.87608 19.52487 36150 ft 404 kts 14°
2026-04-23 00:57 47.93183 19.53645 36157 ft 404 kts 13°
2026-04-23 00:57 47.98752 19.54804 36152 ft 404 kts 13°
2026-04-23 00:58 48.04306 19.55961 36155 ft 404 kts 13°
2026-04-23 00:58 48.09845 19.57118 36154 ft 403 kts 13°
2026-04-23 00:59 48.15399 19.58282 36144 ft 402 kts 13°
2026-04-23 00:59 48.20947 19.59446 36154 ft 402 kts 13°
2026-04-23 01:00 48.26540 19.60183 36164 ft 406 kts
2026-04-23 01:00 48.32185 19.60361 36145 ft 406 kts
2026-04-23 01:01 48.37840 19.60511 36158 ft 405 kts
2026-04-23 01:01 48.43469 19.60703 36154 ft 405 kts
2026-04-23 01:02 48.49087 19.60918 36160 ft 404 kts
2026-04-23 01:02 48.54711 19.61141 36149 ft 404 kts
2026-04-23 01:03 48.60329 19.61365 36132 ft 403 kts
2026-04-23 01:03 48.65895 19.61587 36160 ft 402 kts
2026-04-23 01:04 48.71527 19.61812 36173 ft 402 kts
2026-04-23 01:04 48.79741 19.62134 36161 ft 391 kts
2026-04-23 01:05 48.85179 19.62355 35818 ft 391 kts
2026-04-23 01:05 48.87879 19.62462 35485 ft 386 kts
2026-04-23 01:05 48.90551 19.62568 35134 ft 381 kts
2026-04-23 01:06 48.93181 19.62672 34746 ft 378 kts
2026-04-23 01:06 48.95813 19.62777 34384 ft 374 kts
2026-04-23 01:06 48.98402 19.62882 33975 ft 371 kts
2026-04-23 01:06 49.00970 19.62987 33594 ft 367 kts
2026-04-23 01:07 49.03505 19.63090 33222 ft 362 kts
2026-04-23 01:07 49.06017 19.63191 32851 ft 359 kts
2026-04-23 01:07 49.08498 19.63292 32508 ft 355 kts
2026-04-23 01:07 49.10953 19.63393 32133 ft 352 kts
2026-04-23 01:08 49.13400 19.63493 31771 ft 349 kts
2026-04-23 01:08 49.15808 19.63591 31447 ft 345 kts
2026-04-23 01:08 49.18202 19.63689 31096 ft 342 kts
2026-04-23 01:08 49.19771 19.63753 30881 ft 340 kts
2026-04-23 01:09 49.22281 19.63855 30524 ft 338 kts
2026-04-23 01:09 49.24635 19.63949 30175 ft 336 kts
2026-04-23 01:09 49.26951 19.64032 29818 ft 332 kts
2026-04-23 01:10 49.29250 19.64113 29467 ft 328 kts
2026-04-23 01:10 49.31520 19.64193 29122 ft 324 kts
2026-04-23 01:10 49.33762 19.64272 28796 ft 320 kts
2026-04-23 01:10 49.35977 19.64353 28447 ft 317 kts
2026-04-23 01:11 49.38175 19.64432 28094 ft 314 kts
2026-04-23 01:11 49.40342 19.64511 27792 ft 310 kts
2026-04-23 01:11 49.42495 19.64588 27434 ft 308 kts
2026-04-23 01:11 49.44572 19.65073 27101 ft 299 kts 22°
2026-04-23 01:12 49.46418 19.66452 26784 ft 294 kts 36°
2026-04-23 01:12 49.47965 19.68503 26455 ft 295 kts 44°
2026-04-23 01:12 49.49411 19.70809 26128 ft 305 kts 46°
2026-04-23 01:12 49.50872 19.73235 25781 ft 314 kts 46°
2026-04-23 01:13 49.52354 19.75708 25416 ft 313 kts 46°
2026-04-23 01:13 49.53828 19.78153 25066 ft 311 kts 45°
2026-04-23 01:13 49.55299 19.80581 24726 ft 308 kts 45°
2026-04-23 01:13 49.56759 19.82979 24388 ft 307 kts 45°
2026-04-23 01:14 49.58221 19.85376 24053 ft 306 kts 45°
2026-04-23 01:14 49.59673 19.87752 23716 ft 304 kts 45°
2026-04-23 01:14 49.61122 19.90125 23329 ft 303 kts 45°
2026-04-23 01:14 49.62555 19.92472 22971 ft 300 kts 45°
2026-04-23 01:15 49.63981 19.94809 22628 ft 297 kts 45°
2026-04-23 01:15 49.65394 19.97126 22290 ft 295 kts 44°
2026-04-23 01:15 49.66750 19.99350 21970 ft 293 kts 44°
2026-04-23 01:15 49.68137 20.01629 21622 ft 291 kts 44°
2026-04-23 01:16 49.69053 20.03135 21432 ft 289 kts 44°
2026-04-23 01:16 49.70425 20.05391 21093 ft 288 kts 44°
2026-04-23 01:16 49.71789 20.07637 20826 ft 286 kts 44°
2026-04-23 01:16 49.73164 20.09904 20551 ft 291 kts 44°
2026-04-23 01:17 49.74558 20.12202 20261 ft 297 kts 44°
2026-04-23 01:17 49.75985 20.14557 19970 ft 300 kts 43°
2026-04-23 01:17 49.77633 20.16464 19664 ft 295 kts 23°
2026-04-23 01:17 49.79575 20.17386 19392 ft 293 kts
2026-04-23 01:18 49.81612 20.17377 19093 ft 294 kts 353°
2026-04-23 01:18 49.83614 20.16738 18813 ft 294 kts 349°
2026-04-23 01:18 49.85613 20.16005 18513 ft 294 kts 349°
2026-04-23 01:18 49.87603 20.15282 18211 ft 294 kts 349°
2026-04-23 01:19 49.89594 20.14578 17887 ft 291 kts 349°
2026-04-23 01:19 49.91554 20.13894 17583 ft 287 kts 349°
2026-04-23 01:19 49.93486 20.13191 17284 ft 284 kts 344°
2026-04-23 01:19 49.95241 20.11804 17034 ft 284 kts 326°
2026-04-23 01:20 49.96720 20.09758 16784 ft 286 kts 320°
2026-04-23 01:20 49.98137 20.07583 16476 ft 286 kts 320°
2026-04-23 01:20 49.99536 20.05398 16192 ft 285 kts 319°
2026-04-23 01:20 50.00933 20.03221 15913 ft 284 kts 320°
2026-04-23 01:21 50.02331 20.01053 15643 ft 283 kts 320°
2026-04-23 01:21 50.03722 19.98915 15361 ft 280 kts 321°
2026-04-23 01:21 50.05156 19.96882 14883 ft 277 kts 322°
2026-04-23 01:21 50.06610 19.94906 14349 ft 277 kts 323°
2026-04-23 01:22 50.08062 19.92942 13875 ft 277 kts 323°
2026-04-23 01:22 50.09512 19.90977 13562 ft 275 kts 322°
2026-04-23 01:22 50.10947 19.89020 13294 ft 272 kts 322°
2026-04-23 01:22 50.12365 19.87081 12960 ft 271 kts 322°
2026-04-23 01:23 50.13771 19.85154 12640 ft 269 kts 322°
2026-04-23 01:23 50.15178 19.83219 12331 ft 268 kts 322°
2026-04-23 01:23 50.16569 19.81303 12014 ft 267 kts 322°
2026-04-23 01:23 50.17953 19.79396 11709 ft 265 kts 322°
2026-04-23 01:24 50.19329 19.77494 11412 ft 264 kts 321°
2026-04-23 01:24 50.20705 19.75593 11108 ft 263 kts 321°
2026-04-23 01:24 50.22063 19.73713 10836 ft 260 kts 321°
2026-04-23 01:24 50.23406 19.71852 10639 ft 256 kts 321°
2026-04-23 01:25 50.24729 19.70018 10386 ft 253 kts 321°
2026-04-23 01:25 50.26044 19.68192 10101 ft 253 kts 321°
2026-04-23 01:25 50.27353 19.66376 9814 ft 252 kts 321°
2026-04-23 01:25 50.28663 19.64556 9516 ft 250 kts 321°
2026-04-23 01:26 50.29954 19.62760 9223 ft 249 kts 321°
2026-04-23 01:26 50.31249 19.60959 8931 ft 248 kts 321°
2026-04-23 01:26 50.32529 19.59175 8649 ft 246 kts 320°
2026-04-23 01:26 50.33803 19.57400 8365 ft 245 kts 320°
2026-04-23 01:27 50.35073 19.55628 8100 ft 244 kts 320°
2026-04-23 01:27 50.36334 19.53867 7818 ft 242 kts 320°
2026-04-23 01:27 50.37586 19.52118 7541 ft 241 kts 320°
2026-04-23 01:27 50.38821 19.50391 7273 ft 240 kts 320°
2026-04-23 01:28 50.40060 19.48657 7007 ft 238 kts 320°
2026-04-23 01:28 50.41294 19.46930 6739 ft 237 kts 320°
2026-04-23 01:28 50.42514 19.45220 6541 ft 233 kts 320°
2026-04-23 01:28 50.43697 19.43560 6319 ft 224 kts 320°
2026-04-23 01:29 50.44860 19.41928 6052 ft 217 kts 320°
2026-04-23 01:29 50.45938 19.40413 5930 ft 203 kts 320°
2026-04-23 01:29 50.46851 19.38827 5793 ft 190 kts 297°
2026-04-23 01:29 50.47143 19.36850 5591 ft 181 kts 286°
2026-04-23 01:30 50.47315 19.34988 5447 ft 168 kts 284°
2026-04-23 01:30 50.47457 19.33179 5103 ft 167 kts 282°
2026-04-23 01:30 50.47483 19.31331 4653 ft 173 kts 276°
2026-04-23 01:30 50.47494 19.29443 4279 ft 171 kts 278°
2026-04-23 01:31 50.47479 19.27574 3884 ft 172 kts 276°
2026-04-23 01:31 50.47504 19.25714 3516 ft 168 kts 279°
2026-04-23 01:31 50.47534 19.23919 3121 ft 162 kts 277°
2026-04-23 01:31 50.47538 19.22197 2824 ft 148 kts 276°
2026-04-23 01:32 50.47513 19.20658 2470 ft 136 kts 279°
2026-04-23 01:32 50.47540 19.19223 2181 ft 132 kts 279°
2026-04-23 01:32 50.47569 19.17794 1987 ft 132 kts 278°
2026-04-23 01:32 50.47582 19.16397 1703 ft 129 kts 272°
2026-04-23 01:33 50.47587 19.14914 1593 ft 137 kts 273°
2026-04-23 01:33 50.47587 19.13449 1455 ft 136 kts 270°
2026-04-23 01:33 50.47593 19.11964 1288 ft 138 kts 270°
2026-04-23 01:33 50.47593 19.10472 1132 ft 134 kts 269°
2026-04-23 01:34 50.47595 19.09082 1002 ft 116 kts 270°
2026-04-23 01:34 50.47600 19.08054 996 ft 72 kts 270°
2026-04-23 01:34 50.47601 19.07447 999 ft 48 kts 270°
2026-04-23 01:34 50.47545 19.07014 999 ft 34 kts 245°
2026-04-23 01:35 50.47461 19.06777 1001 ft 23 kts 240°
2026-04-23 01:35 50.47387 19.06631 1001 ft 15 kts 199°
2026-04-23 01:35 50.47283 19.06626 999 ft 15 kts 175°
2026-04-23 01:35 50.47235 19.06744 997 ft 14 kts 89°
2026-04-23 01:36 50.47235 19.06905 1002 ft 16 kts 90°
2026-04-23 01:36 50.47212 19.07046 999 ft 13 kts 163°
2026-04-23 01:36 50.47154 19.07048 997 ft 0 kts 179°